Location: Dammartin
(48.9032°N, 1.6195°E)
Time: 15:30:47
(UTC+00:00)

Cosmos 1461 - Pass Details

Date: 03 February 2023
Orbit: 492 x 643 km, 65.0° (Epoch: 29 March)

Event Time Altitude Azimuth Distance (km) Brightness Sun altitude
Rises 17:32:05 0° 180° (S) 2,732 6.6 -6.7°
Reaches altitude 10° 17:34:35 10° 166° (SSE) 1,872 5.6 -7.1°
Maximum altitude 17:37:54 23° 114° (ESE) 1,275 4.3 -7.6°
Drops below altitude 10° 17:41:22 10° 62° (ENE) 1,962 5.0 -8.2°
Enters shadow 17:41:26 10° 61° (ENE) 1,983 5.0 -8.2°
